SPACEBEE-95 (48945 NORAD) Tracking and Keplerian Element Data

This shows tracking and keplerian element data for the satellite.

Feedback or suggestion? Click here.




ElementValue
Catalog48945
NameSPACEBEE-95
Epoch Orbit1290
Epoch Day262.07740373
Epoch Year2021
RAAN29.8256
Inclination97.5181
Eccentricity0.00167
Argument of Perigee324.0938
Mean Anonmoly35.917
Mean Motion15.14578598
Decay Rate3.868E-05
L11 48945U 21059BU 21262.07740373 .00003868 00000-0 21261-3 0 9991
L22 48945 97.5181 29.8256 0016700 324.0938 35.9170 15.14578598 12908

Live tracking and technical data element details for SPACEBEE-95 (NORAD 48945). SPACEBEE-95 can be tracked NOW for your location showing map with azimuth and elevation plus other details from your city location.

Track the satellite on the map from your city or location and see movement details for azimuth, elevation, latitude, longitude, range, height, and movement on the map or in text.







IsCatalogInMostPopularTable: catalog: 48945, numindb: 16
Update: records affected: 1



GetName: 48945 SPACEBEE-95

Hit Count: updated at: Fri, 24 Sep 2021 18:27:20 GMT